Home   Weather   Thousand Oaks   Past weeks

Flag for USA Past Weather in Thousand Oaks, California, USA — Yesterday and Last 2 Weeks

Now
40 °F

Sunny.


Feels Like: 36 °F
Forecast: 43 / 68 °F
Wind: 6 mph from North

Location: Camarillo Airport

Current Time: Dec 3, 2016 at 7:49:11 am

Latest Report: Dec 3, 2016 at 6:55 am


Visibility: 10 mi

Pressure: 30.17 "Hg

Humidity: 58%

Dew Point: 26 °F

Location of Thousand OaksLocation

Past Weather in Thousand Oaks — Graph

°F

Thousand Oaks Temperature Yesterday

Maximum temperature yesterday: 68 °F (at 12:55 pm)
Minimum temperature yesterday: 45 °F (at 12:55 am)
Average temperature yesterday: 57 °F

High & Low Weather Summary for the Past Weeks

 TemperatureHumidityPressure
High81 °F (Nov 24, 1:55 pm)97% (Nov 26, 8:55 pm)30.19 "Hg (Nov 26, 8:55 pm)
Low39 °F (Nov 26, 3:55 am)6% (Nov 18, 12:55 pm)29.84 "Hg (Nov 28, 3:55 pm)
Average56 °F60%30.05 "Hg
* Reported Nov 18 5:55 am — Dec 3 5:55 am, Thousand Oaks, Weather by CustomWeather, © 2016

Note: Actual official high and low records may vary slightly from our data, if they occured in-between our weather recording intervals... More about our weather records

Advertising

Thousand Oaks Weather History for the Previous 24 Hours

Scroll right to see more
 ConditionsComfort  
Time TempWeatherWind HumidityBarometerVisibility
5:55 am
Sat, Dec 3
47 °FClear.7 mph28%30.17 "Hg10 mi
4:55 am40 °FClear.3 mph51%30.17 "Hg10 mi
3:55 am49 °FClear.8 mph25%30.15 "Hg10 mi
2:55 am45 °FClear.No wind37%30.16 "Hg10 mi
1:55 am53 °FClear.8 mph18%30.17 "Hg10 mi
12:55 am49 °FClear.7 mph31%30.16 "Hg10 mi
11:55 pm
Fri, Dec 2
56 °FClear.10 mph16%30.14 "Hg10 mi
10:55 pm54 °FClear.10 mph19%30.15 "Hg10 mi
9:55 pm57 °FClear.15 mph15%30.14 "Hg10 mi
8:55 pm57 °FClear.13 mph15%30.13 "Hg10 mi
7:55 pm57 °FClear.15 mph15%30.12 "Hg10 mi
6:55 pm57 °FClear.5 mph15%30.11 "Hg10 mi
5:55 pm58 °FClear.14 mph18%30.10 "Hg10 mi
4:55 pm57 °FClear.5 mph55%30.08 "Hg10 mi
3:55 pm65 °FSunny.18 mph11%30.07 "Hg10 mi
2:55 pm66 °FSunny.3 mph25%30.06 "Hg10 mi
1:55 pm68 °FSunny.15 mph12%30.05 "Hg10 mi
12:55 pm68 °FSunny.20 mph12%30.04 "Hg10 mi
11:55 am65 °FSunny.21 mph14%30.08 "Hg10 mi
10:55 am64 °FSunny.25 mph15%30.11 "Hg10 mi
9:55 am62 °FSunny.26 mph17%30.11 "Hg10 mi
8:55 am60 °FSunny.18 mph24%30.10 "Hg10 mi
7:55 am57 °FSunny.15 mph28%30.07 "Hg10 mi
Weather by CustomWeather, © 2016

See weather overviewHow to use our weather pages